Home > Weather > Victoria > Past weeks

Flag for U.S.A. Weather for the Past 2 Weeks in Victoria, Texas, U.S.A.

Now
50 °F

Sunny.


Feels Like: 44 °F
Forecast: 41 / 64 °F
Wind: 16 mph from North

Location: Victoria Regional Airport

Current Time: Feb 8, 2016 at 9:24:18 AM

Latest Report: Feb 8, 2016 at 8:51 AM


Visibility: 10 mi

Pressure: 30.36 "Hg

Humidity: 57%

Dew point: 35 °F

Location of VictoriaLocation

Historic Weather in Victoria — Graph

°F

Victoria Temperature Yesterday

Maximum temperature yesterday: 69 °F (at 3:51 PM)
Minimum temperature yesterday: 31 °F (at 6:51 AM)
Average temperature yesterday: 49 °F

High & Low Weather Summary for the Past Weeks

 TemperatureHumidityPressure
High81 °F (Jan 31, 3:51 PM)100% (Jan 24, 7:51 AM)30.51 "Hg (Jan 24, 7:51 AM)
Low31 °F (Jan 28, 6:51 AM)21% (Feb 2, 10:51 AM)29.56 "Hg (Feb 2, 12:51 AM)
Average55 °F69%30.09 "Hg
* Reported Jan 24 7:51 AM — Feb 8 7:51 AM, Victoria, Weather by CustomWeather, © 2016

Note: Actual official high and low records may vary slightly from our data, if they occured in-between our weather recording intervals... More about our weather records

Advertising

Victoria Weather History for the Previous 24 Hours

 ConditionsComfort  
Time TempWeatherWind HumidityBarometerVisibility
7:51 AM
Mon, Feb 8
43 °FSunny.12 mph86%30.32 "Hg10 mi
6:51 AM41 °FClear.9 mph96%30.29 "Hg10 mi
5:51 AM40 °FClear.7 mph97%30.24 "Hg10 mi
4:51 AM41 °FClear.5 mph96%30.22 "Hg10 mi
3:51 AM42 °FClear.6 mph96%30.20 "Hg10 mi
2:51 AM41 °FFog.6 mph100%30.17 "Hg3 mi
1:51 AM43 °FClear.5 mph97%30.17 "Hg10 mi
12:51 AM48 °FClear.5 mph93%30.17 "Hg10 mi
11:51 PM
Sun, Feb 7
48 °FClear.7 mph89%30.18 "Hg10 mi
10:51 PM46 °FClear.7 mph89%30.17 "Hg10 mi
9:51 PM46 °FClear.No wind89%30.18 "Hg10 mi
8:51 PM47 °FClear.No wind83%30.19 "Hg10 mi
7:51 PM51 °FClear.8 mph77%30.18 "Hg10 mi
6:51 PM53 °FClear.9 mph64%30.15 "Hg10 mi
5:51 PM62 °FSunny.12 mph41%30.13 "Hg10 mi
5:01 PM66 °FSunny.13 mph36%30.13 "Hg10 mi
3:51 PM69 °FSunny.10 mph25%30.12 "Hg10 mi
2:51 PM68 °FSunny.7 mph24%30.16 "Hg10 mi
1:51 PM66 °FSunny.7 mph28%30.20 "Hg10 mi
12:51 PM64 °FSunny.12 mph32%30.24 "Hg10 mi
11:51 AM62 °FSunny.10 mph39%30.28 "Hg10 mi
10:51 AM57 °FSunny.10 mph58%30.30 "Hg10 mi
9:51 AM50 °FSunny.5 mph80%30.30 "Hg7 mi
Weather by CustomWeather, © 2016

See weather overviewHow to use our weather pages